TSO1378 UHWW-UHSS

Flight info

Callsign TSO1378
Flight time 1h 23m
Altitude 39000
Route DOLMA2F DOLMA B356 LUBOK W209 RUNUK R810 TIMIT B919 KENOM KENOM4A
Aircraft T204/M-S/C

Departure

Time 2026-04-28 15:13
Airport Vladivostok International Airport (UHWW)

Arrival

Time 2026-04-28 16:36
Airport Yuzhno-Sakhalinsk International Airport (UHSS)
Time Latitude Longitude Altitude Speed Heading
2026-04-28 14:46 43.39877 132.16409 53 ft 0 kts 151°
2026-04-28 14:58 43.39874 132.16412 53 ft 2 kts 151°
2026-04-28 14:58 43.39833 132.16444 53 ft 11 kts 150°
2026-04-28 14:58 43.39781 132.16408 53 ft 12 kts 269°
2026-04-28 14:59 43.39751 132.16284 53 ft 15 kts 250°
2026-04-28 14:59 43.39808 132.16168 53 ft 16 kts 329°
2026-04-28 14:59 43.39874 132.16116 53 ft 6 kts 326°
2026-04-28 14:59 43.39889 132.16069 53 ft 6 kts 267°
2026-04-28 15:00 43.39869 132.15999 53 ft 8 kts 243°
2026-04-28 15:00 43.39845 132.15933 53 ft 5 kts 241°
2026-04-28 15:00 43.39830 132.15898 53 ft 2 kts 240°
2026-04-28 15:00 43.39825 132.15884 53 ft 1 kts 240°
2026-04-28 15:01 43.39818 132.15869 53 ft 3 kts 241°
2026-04-28 15:01 43.39792 132.15804 53 ft 13 kts 241°
2026-04-28 15:01 43.39740 132.15674 53 ft 14 kts 241°
2026-04-28 15:01 43.39696 132.15564 53 ft 11 kts 240°
2026-04-28 15:02 43.39663 132.15482 53 ft 8 kts 241°
2026-04-28 15:02 43.39632 132.15402 53 ft 13 kts 242°
2026-04-28 15:02 43.39566 132.15240 53 ft 23 kts 240°
2026-04-28 15:02 43.39489 132.15054 53 ft 20 kts 240°
2026-04-28 15:03 43.39436 132.14918 53 ft 12 kts 242°
2026-04-28 15:03 43.39397 132.14825 53 ft 9 kts 240°
2026-04-28 15:03 43.39364 132.14745 53 ft 11 kts 241°
2026-04-28 15:03 43.39311 132.14612 53 ft 16 kts 241°
2026-04-28 15:04 43.39273 132.14517 53 ft 9 kts 240°
2026-04-28 15:04 43.39246 132.14450 53 ft 8 kts 241°
2026-04-28 15:04 43.39218 132.14380 53 ft 7 kts 239°
2026-04-28 15:04 43.39182 132.14290 53 ft 14 kts 242°
2026-04-28 15:05 43.39123 132.14143 53 ft 20 kts 243°
2026-04-28 15:05 43.39043 132.13942 53 ft 27 kts 242°
2026-04-28 15:05 43.38935 132.13689 53 ft 33 kts 242°
2026-04-28 15:05 43.38844 132.13458 53 ft 22 kts 242°
2026-04-28 15:06 43.38779 132.13286 53 ft 17 kts 255°
2026-04-28 15:06 43.38812 132.13173 53 ft 6 kts 328°
2026-04-28 15:06 43.38817 132.13170 53 ft 0 kts 329°
2026-04-28 15:07 43.38825 132.13164 53 ft 3 kts 330°
2026-04-28 15:07 43.38860 132.13136 53 ft 8 kts 331°
2026-04-28 15:07 43.38926 132.13101 53 ft 9 kts 10°
2026-04-28 15:07 43.38959 132.13142 53 ft 0 kts 62°
2026-04-28 15:12 43.38959 132.13144 53 ft 1 kts 62°
2026-04-28 15:12 43.38993 132.13226 53 ft 26 kts 59°
2026-04-28 15:13 43.39199 132.13716 53 ft 90 kts 60°
2026-04-28 15:13 43.39599 132.14725 53 ft 148 kts 60°
2026-04-28 15:13 43.40150 132.16138 399 ft 177 kts 62°
2026-04-28 15:13 43.40733 132.17653 940 ft 184 kts 62°
2026-04-28 15:14 43.41324 132.19263 1423 ft 194 kts 63°
2026-04-28 15:14 43.41914 132.20837 2394 ft 173 kts 60°
2026-04-28 15:14 43.42527 132.22377 2773 ft 190 kts 59°
2026-04-28 15:14 43.43277 132.24080 2981 ft 214 kts 57°
2026-04-28 15:15 43.44061 132.25879 3480 ft 223 kts 58°
2026-04-28 15:15 43.44850 132.27757 3951 ft 233 kts 58°
2026-04-28 15:15 43.45655 132.29721 4420 ft 241 kts 59°
2026-04-28 15:15 43.46487 132.31789 4891 ft 249 kts 59°
2026-04-28 15:16 43.47331 132.33907 5306 ft 260 kts 59°
2026-04-28 15:16 43.47980 132.35542 5576 ft 261 kts 59°
2026-04-28 15:16 43.48986 132.37614 6016 ft 260 kts 43°
2026-04-28 15:16 43.49972 132.38681 6337 ft 259 kts 30°
2026-04-28 15:17 43.51541 132.40002 6817 ft 272 kts 28°
2026-04-28 15:17 43.53183 132.41312 7285 ft 277 kts 27°
2026-04-28 15:17 43.54869 132.42642 7741 ft 278 kts 27°
2026-04-28 15:17 43.56544 132.43967 8191 ft 280 kts 27°
2026-04-28 15:18 43.58241 132.45311 8645 ft 282 kts 27°
2026-04-28 15:18 43.59963 132.46680 9102 ft 284 kts 27°
2026-04-28 15:18 43.61680 132.48045 9555 ft 287 kts 26°
2026-04-28 15:18 43.63394 132.49411 10004 ft 289 kts 26°
2026-04-28 15:19 43.65165 132.50822 10463 ft 292 kts 26°
2026-04-28 15:19 43.66987 132.52272 10951 ft 321 kts 26°
2026-04-28 15:19 43.69028 132.53896 11464 ft 356 kts 26°
2026-04-28 15:19 43.71297 132.55707 11971 ft 391 kts 27°
2026-04-28 15:20 43.73717 132.57646 12727 ft 416 kts 27°
2026-04-28 15:20 43.76231 132.59672 14069 ft 424 kts 26°
2026-04-28 15:20 43.78760 132.61708 15301 ft 426 kts 26°
2026-04-28 15:20 43.81253 132.63947 15818 ft 429 kts 34°
2026-04-28 15:21 43.83515 132.66658 16270 ft 429 kts 38°
2026-04-28 15:21 43.85714 132.69388 16709 ft 429 kts 38°
2026-04-28 15:21 43.87943 132.72177 17155 ft 429 kts 38°
2026-04-28 15:21 43.90149 132.74931 17597 ft 428 kts 38°
2026-04-28 15:22 43.92359 132.77687 18039 ft 428 kts 38°
2026-04-28 15:22 43.94611 132.80486 18498 ft 444 kts 38°
2026-04-28 15:22 43.96957 132.83394 19015 ft 459 kts 38°
2026-04-28 15:22 43.99316 132.86331 19543 ft 448 kts 38°
2026-04-28 15:23 44.01633 132.89214 19976 ft 445 kts 37°
2026-04-28 15:23 44.03960 132.92099 20423 ft 445 kts 37°
2026-04-28 15:23 44.06261 132.94952 20867 ft 445 kts 37°
2026-04-28 15:23 44.08556 132.97798 21218 ft 446 kts 37°
2026-04-28 15:24 44.10882 133.00684 21462 ft 446 kts 37°
2026-04-28 15:24 44.13208 133.03566 21713 ft 446 kts 37°
2026-04-28 15:24 44.15057 133.05856 21912 ft 447 kts 37°
2026-04-28 15:24 44.16032 133.07065 22017 ft 446 kts 37°
2026-04-28 15:25 44.16333 133.07437 22050 ft 446 kts 37°
2026-04-28 15:25 44.18662 133.10321 22301 ft 447 kts 37°
2026-04-28 15:25 44.21004 133.13126 22545 ft 445 kts 33°
2026-04-28 15:26 44.23489 133.15701 22798 ft 444 kts 31°
2026-04-28 15:26 44.25983 133.18257 23050 ft 444 kts 31°
2026-04-28 15:26 44.28463 133.20813 23301 ft 445 kts 32°
2026-04-28 15:26 44.30950 133.23392 23553 ft 444 kts 32°
2026-04-28 15:27 44.33429 133.25972 23805 ft 444 kts 32°
2026-04-28 15:27 44.35920 133.28572 24058 ft 444 kts 32°
2026-04-28 15:27 44.38403 133.31168 24097 ft 446 kts 32°
2026-04-28 15:27 44.40865 133.33742 24069 ft 444 kts 32°
2026-04-28 15:28 44.43359 133.36350 24087 ft 443 kts 32°
2026-04-28 15:28 44.45804 133.38905 24155 ft 444 kts 32°
2026-04-28 15:28 44.48279 133.41492 24474 ft 443 kts 31°
2026-04-28 15:28 44.50746 133.44070 24805 ft 444 kts 31°
2026-04-28 15:29 44.53229 133.46666 25136 ft 443 kts 31°
2026-04-28 15:29 44.55706 133.49254 25465 ft 444 kts 31°
2026-04-28 15:29 44.58160 133.51817 25792 ft 443 kts 31°
2026-04-28 15:29 44.60619 133.54385 26121 ft 443 kts 31°
2026-04-28 15:30 44.63084 133.56959 26450 ft 443 kts 31°
2026-04-28 15:30 44.65545 133.59528 26779 ft 443 kts 31°
2026-04-28 15:30 44.68011 133.62100 27110 ft 443 kts 31°
2026-04-28 15:30 44.70497 133.64694 27443 ft 443 kts 31°
2026-04-28 15:31 44.72957 133.67259 27761 ft 443 kts 31°
2026-04-28 15:31 44.75436 133.69841 28078 ft 442 kts 31°
2026-04-28 15:31 44.77916 133.72426 28397 ft 442 kts 31°
2026-04-28 15:31 44.80389 133.75001 28715 ft 442 kts 31°
2026-04-28 15:32 44.82841 133.77557 29031 ft 441 kts 31°
2026-04-28 15:32 44.85321 133.80139 29350 ft 441 kts 31°
2026-04-28 15:32 44.87772 133.82693 29667 ft 441 kts 30°
2026-04-28 15:32 44.90219 133.85353 29982 ft 445 kts 37°
2026-04-28 15:33 44.92253 133.88634 30308 ft 453 kts 49°
2026-04-28 15:33 44.94076 133.92339 30645 ft 456 kts 52°
2026-04-28 15:33 44.95383 133.95226 30891 ft 457 kts 54°
2026-04-28 15:33 44.97020 133.99000 31209 ft 457 kts 54°
2026-04-28 15:34 44.98656 134.02864 31569 ft 456 kts 55°
2026-04-28 15:34 45.00263 134.06703 31940 ft 455 kts 55°
2026-04-28 15:34 45.01878 134.10577 32315 ft 455 kts 55°
2026-04-28 15:34 45.03468 134.14403 32686 ft 452 kts 56°
2026-04-28 15:35 45.05058 134.18225 33058 ft 452 kts 56°
2026-04-28 15:35 45.08257 134.25915 33812 ft 450 kts 56°
2026-04-28 15:35 45.09835 134.29715 34193 ft 448 kts 57°
2026-04-28 15:36 45.11411 134.33525 34552 ft 446 kts 56°
2026-04-28 15:36 45.13004 134.37334 34936 ft 444 kts 56°
2026-04-28 15:36 45.14577 134.41092 35309 ft 444 kts 55°
2026-04-28 15:36 45.16147 134.44855 35688 ft 443 kts 55°
2026-04-28 15:37 45.17710 134.48589 36062 ft 442 kts 55°
2026-04-28 15:37 45.19276 134.52328 36438 ft 442 kts 55°
2026-04-28 15:37 45.20837 134.56056 36812 ft 442 kts 55°
2026-04-28 15:37 45.22415 134.59819 37193 ft 442 kts 55°
2026-04-28 15:38 45.23987 134.63568 37571 ft 442 kts 55°
2026-04-28 15:38 45.25560 134.67314 37937 ft 442 kts 56°
2026-04-28 15:38 45.27136 134.71060 38301 ft 442 kts 56°
2026-04-28 15:38 45.28722 134.74829 38668 ft 443 kts 56°
2026-04-28 15:39 45.30304 134.78587 38938 ft 447 kts 56°
2026-04-28 15:39 45.31928 134.82436 38903 ft 462 kts 56°
2026-04-28 15:39 45.33609 134.86420 38898 ft 476 kts 56°
2026-04-28 15:39 45.35339 134.90520 38877 ft 490 kts 56°
2026-04-28 15:40 45.37109 134.94714 38879 ft 504 kts 56°
2026-04-28 15:40 45.38951 134.99077 38873 ft 518 kts 56°
2026-04-28 15:40 45.42659 135.07861 38855 ft 519 kts 57°
2026-04-28 15:41 45.45766 135.15204 38858 ft 518 kts 56°
2026-04-28 15:41 45.49476 135.23953 38859 ft 518 kts 56°
2026-04-28 15:42 45.53215 135.32753 38861 ft 518 kts 56°
2026-04-28 15:42 45.56958 135.41548 38862 ft 518 kts 56°
2026-04-28 15:43 45.60705 135.50337 38864 ft 518 kts 56°
2026-04-28 15:43 45.64466 135.59142 38865 ft 518 kts 56°
2026-04-28 15:44 45.68207 135.67880 38858 ft 518 kts 56°
2026-04-28 15:44 45.71972 135.76653 38855 ft 517 kts 56°
2026-04-28 15:45 45.75754 135.85455 38857 ft 518 kts 56°
2026-04-28 15:45 45.79535 135.94246 38855 ft 517 kts 56°
2026-04-28 15:46 45.83299 136.02983 38858 ft 517 kts 56°
2026-04-28 15:46 45.87100 136.11784 38859 ft 518 kts 56°
2026-04-28 15:47 45.90900 136.20575 38859 ft 518 kts 56°
2026-04-28 15:47 45.94695 136.29336 38861 ft 518 kts 56°
2026-04-28 15:48 45.98499 136.38104 38864 ft 517 kts 55°
2026-04-28 15:48 46.02318 136.46890 38862 ft 517 kts 55°
2026-04-28 15:49 46.06148 136.55684 38863 ft 518 kts 55°
2026-04-28 15:49 46.09981 136.64470 38863 ft 518 kts 55°
2026-04-28 15:50 46.13828 136.73262 38853 ft 517 kts 56°
2026-04-28 15:50 46.17670 136.82034 38855 ft 518 kts 56°
2026-04-28 15:51 46.21503 136.90775 38857 ft 518 kts 56°
2026-04-28 15:51 46.25369 136.99576 38856 ft 517 kts 55°
2026-04-28 15:52 46.29225 137.08339 38858 ft 518 kts 56°
2026-04-28 15:52 46.33087 137.17104 38861 ft 517 kts 55°
2026-04-28 15:53 46.36538 137.26209 38865 ft 519 kts 69°
2026-04-28 15:53 46.38734 137.36226 38860 ft 520 kts 73°
2026-04-28 15:54 46.40641 137.46280 38860 ft 520 kts 74°
2026-04-28 15:54 46.42536 137.56450 38863 ft 520 kts 74°
2026-04-28 15:55 46.44429 137.66579 38858 ft 520 kts 75°
2026-04-28 15:55 46.46328 137.76671 38855 ft 520 kts 75°
2026-04-28 15:56 46.48244 137.86822 38858 ft 521 kts 75°
2026-04-28 15:56 46.50162 137.96950 38857 ft 521 kts 74°
2026-04-28 15:57 46.52088 138.07069 38859 ft 519 kts 74°
2026-04-28 15:57 46.53935 138.17244 38858 ft 521 kts 75°
2026-04-28 15:58 46.55745 138.27411 38861 ft 521 kts 75°
2026-04-28 15:58 46.57563 138.37587 38860 ft 520 kts 75°
2026-04-28 15:59 46.59393 138.47777 38859 ft 521 kts 75°
2026-04-28 15:59 46.61239 138.58000 38894 ft 521 kts 75°
2026-04-28 16:00 46.62813 138.68240 38917 ft 520 kts 83°
2026-04-28 16:00 46.63645 138.78790 38938 ft 521 kts 84°
2026-04-28 16:01 46.64435 138.89327 38965 ft 520 kts 84°
2026-04-28 16:01 46.65239 138.99791 38989 ft 521 kts 84°
2026-04-28 16:02 46.66065 139.10362 38994 ft 521 kts 84°
2026-04-28 16:02 46.66891 139.20821 38994 ft 522 kts 84°
2026-04-28 16:03 46.67732 139.31343 38996 ft 522 kts 84°
2026-04-28 16:03 46.68568 139.41901 38992 ft 522 kts 84°
2026-04-28 16:04 46.69335 139.52409 38998 ft 522 kts 84°
2026-04-28 16:04 46.70099 139.62967 38997 ft 522 kts 84°
2026-04-28 16:05 46.70874 139.73518 38992 ft 521 kts 85°
2026-04-28 16:05 46.71659 139.84065 38993 ft 521 kts 85°
2026-04-28 16:06 46.72452 139.94638 38992 ft 521 kts 84°
2026-04-28 16:06 46.72849 139.99896 38864 ft 524 kts 85°
2026-04-28 16:06 46.73246 140.05180 38410 ft 524 kts 84°
2026-04-28 16:07 46.73642 140.10477 37963 ft 521 kts 85°
2026-04-28 16:07 46.74031 140.15732 37516 ft 520 kts 85°
2026-04-28 16:07 46.74688 140.26285 36630 ft 520 kts 86°
2026-04-28 16:08 46.74987 140.31490 36193 ft 521 kts 86°
2026-04-28 16:08 46.75284 140.36783 35752 ft 517 kts 86°
2026-04-28 16:08 46.75574 140.41945 35291 ft 507 kts 86°
2026-04-28 16:09 46.76147 140.52026 34381 ft 489 kts 86°
2026-04-28 16:09 46.76431 140.56969 33925 ft 481 kts 86°
2026-04-28 16:09 46.76706 140.61754 33476 ft 474 kts 86°
2026-04-28 16:10 46.77265 140.71280 32563 ft 464 kts 86°
2026-04-28 16:10 46.77544 140.75978 32067 ft 467 kts 86°
2026-04-28 16:10 46.78109 140.85442 30927 ft 470 kts 86°
2026-04-28 16:11 46.78682 140.94934 29771 ft 463 kts 86°
2026-04-28 16:11 46.79251 141.04231 28616 ft 454 kts 86°
2026-04-28 16:12 46.79816 141.13301 27468 ft 445 kts 86°
2026-04-28 16:12 46.80095 141.17784 26896 ft 441 kts 85°
2026-04-28 16:13 46.80654 141.26678 25764 ft 443 kts 85°
2026-04-28 16:13 46.80942 141.31161 25197 ft 444 kts 85°
2026-04-28 16:13 46.81521 141.40170 24057 ft 441 kts 85°
2026-04-28 16:14 46.82096 141.49002 22905 ft 429 kts 85°
2026-04-28 16:14 46.82658 141.57530 21766 ft 419 kts 85°
2026-04-28 16:15 46.83220 141.65965 20614 ft 410 kts 85°
2026-04-28 16:15 46.83499 141.70096 20033 ft 405 kts 85°
2026-04-28 16:15 46.83774 141.74144 19459 ft 401 kts 85°
2026-04-28 16:16 46.84351 141.82170 18304 ft 394 kts 82°
2026-04-28 16:16 46.84772 141.86114 17727 ft 390 kts 81°
2026-04-28 16:17 46.85629 141.93907 16570 ft 384 kts 81°
2026-04-28 16:17 46.86042 141.97737 15996 ft 380 kts 81°
2026-04-28 16:17 46.86450 142.01553 15419 ft 377 kts 81°
2026-04-28 16:17 46.86854 142.05360 14839 ft 374 kts 81°
2026-04-28 16:18 46.87244 142.09065 14270 ft 371 kts 81°
2026-04-28 16:18 46.87638 142.12817 13689 ft 368 kts 81°
2026-04-28 16:18 46.87947 142.15775 13119 ft 369 kts 81°
2026-04-28 16:18 46.88338 142.19536 12363 ft 371 kts 81°
2026-04-28 16:19 46.88722 142.23233 11623 ft 371 kts 81°
2026-04-28 16:19 46.89108 142.26970 10874 ft 371 kts 81°
2026-04-28 16:19 46.89492 142.30701 10125 ft 370 kts 81°
2026-04-28 16:19 46.89875 142.34431 9434 ft 367 kts 81°
2026-04-28 16:20 46.90249 142.38078 8792 ft 351 kts 81°
2026-04-28 16:20 46.90590 142.41419 8158 ft 319 kts 81°
2026-04-28 16:20 46.90905 142.44511 7513 ft 299 kts 81°
2026-04-28 16:20 46.91210 142.47505 6880 ft 296 kts 81°
2026-04-28 16:21 46.91511 142.50472 6260 ft 295 kts 81°
2026-04-28 16:21 46.91812 142.53442 5634 ft 293 kts 81°
2026-04-28 16:21 46.92109 142.56393 5069 ft 288 kts 81°
2026-04-28 16:21 46.92396 142.59244 5075 ft 282 kts 81°
2026-04-28 16:22 46.92684 142.62111 5080 ft 281 kts 81°
2026-04-28 16:22 46.92963 142.64900 5071 ft 279 kts 81°
2026-04-28 16:22 46.93245 142.67722 5072 ft 279 kts 81°
2026-04-28 16:22 46.93528 142.70555 5072 ft 279 kts 81°
2026-04-28 16:23 46.93763 142.73383 5069 ft 279 kts 89°
2026-04-28 16:23 46.93538 142.76216 5078 ft 279 kts 103°
2026-04-28 16:23 46.92918 142.78919 5074 ft 279 kts 116°
2026-04-28 16:23 46.92048 142.81461 5074 ft 279 kts 115°
2026-04-28 16:24 46.91341 142.84134 5069 ft 280 kts 108°
2026-04-28 16:24 46.90449 142.86652 5071 ft 278 kts 132°
2026-04-28 16:24 46.88872 142.88171 5079 ft 273 kts 167°
2026-04-28 16:24 46.86998 142.88132 5086 ft 267 kts 201°
2026-04-28 16:25 46.85520 142.86597 5084 ft 262 kts 235°
2026-04-28 16:25 46.84926 142.84142 5085 ft 259 kts 269°
2026-04-28 16:25 46.85389 142.81621 5092 ft 260 kts 297°
2026-04-28 16:25 46.86316 142.79335 5080 ft 261 kts 301°
2026-04-28 16:26 46.87302 142.77106 5071 ft 260 kts 302°
2026-04-28 16:26 46.88314 142.74852 4909 ft 262 kts 302°
2026-04-28 16:26 46.89318 142.72624 4652 ft 259 kts 303°
2026-04-28 16:26 46.90302 142.70436 4395 ft 255 kts 303°
2026-04-28 16:27 46.91279 142.68262 4137 ft 252 kts 303°
2026-04-28 16:27 46.92234 142.66130 3881 ft 249 kts 303°
2026-04-28 16:27 46.95052 142.63187 3409 ft 274 kts 342°
2026-04-28 16:28 46.96959 142.62816 3177 ft 278 kts 357°
2026-04-28 16:28 46.98902 142.62791 3066 ft 275 kts 359°
2026-04-28 16:28 47.00811 142.62826 3074 ft 275 kts 359°
2026-04-28 16:28 47.02739 142.62874 3073 ft 276 kts 360°
2026-04-28 16:29 47.06556 142.62972 3063 ft 265 kts 360°
2026-04-28 16:29 47.09819 142.63057 3087 ft 208 kts 359°
2026-04-28 16:30 47.11198 142.63200 3053 ft 193 kts 18°
2026-04-28 16:30 47.12129 142.64476 3095 ft 182 kts 64°
2026-04-28 16:30 47.12406 142.66299 3082 ft 180 kts 84°
2026-04-28 16:30 47.12470 142.68187 3086 ft 187 kts 89°
2026-04-28 16:31 47.12415 142.70114 3052 ft 189 kts 106°
2026-04-28 16:31 47.11637 142.71582 3067 ft 185 kts 152°
2026-04-28 16:31 47.10406 142.72055 3096 ft 183 kts 176°
2026-04-28 16:31 47.09141 142.72154 3073 ft 182 kts 181°
2026-04-28 16:32 47.07860 142.72162 3071 ft 181 kts 183°
2026-04-28 16:32 47.05332 142.72115 3031 ft 183 kts 184°
2026-04-28 16:32 47.04079 142.72087 2781 ft 178 kts 184°
2026-04-28 16:33 47.02864 142.72063 2539 ft 168 kts 184°
2026-04-28 16:33 47.02108 142.72047 2375 ft 161 kts 184°
2026-04-28 16:33 47.00612 142.72014 2128 ft 162 kts 184°
2026-04-28 16:33 46.99493 142.71986 1918 ft 162 kts 184°
2026-04-28 16:34 46.98376 142.71962 1691 ft 154 kts 184°
2026-04-28 16:34 46.97334 142.71941 1465 ft 147 kts 184°
2026-04-28 16:34 46.96322 142.71916 1247 ft 143 kts 184°
2026-04-28 16:34 46.95338 142.71898 1041 ft 140 kts 184°
2026-04-28 16:35 46.94350 142.71880 869 ft 140 kts 185°
2026-04-28 16:35 46.93372 142.71838 702 ft 140 kts 185°
2026-04-28 16:35 46.92402 142.71817 529 ft 140 kts 184°
2026-04-28 16:35 46.91424 142.71809 373 ft 139 kts 184°
2026-04-28 16:36 46.90442 142.71786 169 ft 141 kts 185°
2026-04-28 16:36 46.89466 142.71758 60 ft 133 kts 184°
2026-04-28 16:36 46.88688 142.71727 54 ft 78 kts 181°
2026-04-28 16:36 46.88262 142.71716 52 ft 48 kts 182°
2026-04-28 16:37 46.88005 142.71719 52 ft 21 kts 178°
2026-04-28 16:37 46.87943 142.71779 54 ft 8 kts 84°
2026-04-28 16:37 46.87950 142.71835 55 ft 3 kts 75°
2026-04-28 16:38 46.87986 142.71986 58 ft 12 kts 70°
2026-04-28 16:38 46.88006 142.72070 61 ft 4 kts 72°
2026-04-28 16:38 46.88009 142.72086 61 ft 0 kts 71°
2026-04-28 16:38 46.88028 142.72095 62 ft 7 kts
2026-04-28 16:39 46.88109 142.72090 63 ft 15 kts 346°
2026-04-28 16:39 46.88243 142.72075 63 ft 23 kts
2026-04-28 16:39 46.88435 142.72089 63 ft 31 kts
2026-04-28 16:39 46.88673 142.72099 63 ft 33 kts
2026-04-28 16:40 46.88858 142.72104 63 ft 16 kts 25°
2026-04-28 16:40 46.88892 142.72218 67 ft 9 kts 85°
2026-04-28 16:40 46.88879 142.72266 68 ft 5 kts 150°
2026-04-28 16:40 46.88846 142.72273 69 ft 3 kts 181°
2026-04-28 16:41 46.88838 142.72273 69 ft 0 kts 181°
2026-04-28 16:48 46.88835 142.72273 69 ft 0 kts 185°
2026-04-28 16:48 46.88840 142.72273 69 ft 1 kts 182°
2026-04-28 16:48 46.88839 142.72273 69 ft 3 kts 185°
2026-04-28 16:49 46.88809 142.72179 65 ft 18 kts 265°
2026-04-28 16:49 46.88722 142.72095 63 ft 14 kts 172°
2026-04-28 16:49 46.88679 142.72115 63 ft 5 kts 121°
2026-04-28 16:49 46.88672 142.72192 66 ft 4 kts 93°
2026-04-28 16:50 46.88672 142.72214 66 ft 0 kts 92°
2026-04-28 16:50 46.88672 142.72218 66 ft 0 kts 92°